Home > Time Zones > World Clock > Weather > Spain > Jaén > Past weeks

Flag for Spain Weather past 2 weeks in Jaén, Spain

Now
70 °F

Scattered clouds.


Feels Like: 70 °F
Forecast: 57 / 81 °F
Wind: 12 mph from West

Location: Granada / Aeropuerto

Current Time: Sep 17, 2014 at 9:36:48 PM

Latest Report: Sep 17, 2014 at 9:00 PM


Visibility: N/A

Pressure: 29.89 "Hg

Humidity: 69%

Dew point: 59 °F

Location of JaénLocation

Historic Weather in Jaén — Graph

°F

Jaén temperature yesterday

Maximum temperature yesterday: 90 °F (at 1:00 PM)
Minimum temperature yesterday: 52 °F (at 6:00 AM)
Average temperature yesterday: 74 °F

Past Weeks' High & Low Weather Summary

 TemperatureHumidityPressure
High99 °F (Sep 3, 4:00 PM)94% (Sep 3, 8:30 AM)30.09 "Hg (Sep 3, 8:30 AM)
Low52 °F (Sep 16, 6:00 AM)13% (Sep 3, 5:30 PM)29.83 "Hg (Sep 16, 3:30 PM)
Average77 °F48%29.99 "Hg
* Reported Sep 2 8:00 PM — Sep 17 8:30 PM, Jaén, Weather by CustomWeather, © 2014

Note: Actual official high and low records may vary slightly from our data, if they occured in-between our weather recording intervals... More about our weather records

Advertising

Jaén weather history for previous 24 hours

 ConditionsComfort  
Time TempWeatherWind HumidityBarometerVisibility
8:30 PM
Sep 17
72 °FScattered clouds.7 mph61%29.89 "HgN/A
7:30 PM73 °FBroken clouds.7 mph57%29.89 "HgN/A
7:00 PM73 °FBroken clouds.14 mph57%29.89 "HgN/A
6:30 PM75 °FBroken clouds.13 mph54%29.86 "HgN/A
6:00 PM75 °FBroken clouds.12 mph54%29.86 "HgN/A
5:30 PM75 °FBroken clouds.14 mph54%29.86 "HgN/A
5:00 PM75 °FBroken clouds.15 mph54%29.86 "HgN/A
4:30 PM75 °FBroken clouds.17 mph54%29.86 "HgN/A
4:00 PM77 °FBroken clouds.14 mph54%29.86 "HgN/A
3:30 PM73 °FBroken clouds.15 mph61%29.89 "HgN/A
3:00 PM72 °FBroken clouds.8 mph73%29.89 "HgN/A
2:30 PM70 °FLight rain. Broken clouds.10 mph73%29.89 "HgN/A
2:00 PM73 °FScattered showers. Broken clouds.7 mph61%29.89 "HgN/A
1:30 PM75 °FPartly sunny.13 mph57%29.89 "HgN/A
1:00 PM73 °FPartly sunny.10 mph57%29.89 "HgN/A
12:30 PM77 °FPartly sunny.6 mph51%29.89 "HgN/A
12:00 PM75 °FScattered clouds.10 mph50%29.89 "HgN/A
11:30 AM75 °FScattered clouds.2 mph50%29.92 "HgN/A
11:00 AM72 °FScattered clouds.No wind57%29.89 "HgN/A
10:30 AM68 °FScattered clouds.No wind60%29.89 "HgN/A
10:00 AM64 °FScattered clouds.No wind68%29.89 "HgN/A
9:30 AM61 °FScattered clouds.1 mph72%29.89 "HgN/A
9:00 AM59 °FScattered clouds.No wind77%29.89 "HgN/A
8:30 AM57 °FPassing clouds.1 mph77%29.89 "HgN/A
8:00 AM57 °FPassing clouds.No wind77%29.89 "HgN/A
7:30 AM57 °FPassing clouds.1 mph77%29.89 "HgN/A
7:00 AM57 °FPassing clouds.No wind72%29.86 "HgN/A
6:30 AM57 °FPassing clouds.5 mph67%29.86 "HgN/A
6:00 AM55 °FPassing clouds.No wind77%29.86 "HgN/A
11:00 PM
Sep 16
72 °FPassing clouds.7 mph41%29.92 "HgN/A
10:30 PM73 °FPassing clouds.13 mph38%29.89 "HgN/A
10:00 PM73 °FPassing clouds.13 mph44%29.89 "HgN/A
9:30 PM73 °FPassing clouds.12 mph50%29.89 "HgN/A
9:00 PM75 °FPassing clouds.15 mph50%29.89 "HgN/A
Weather by CustomWeather, © 2014

See weather overviewHow to use our weather pages